Regional Weather Roundup
Issued by NWS

Home | Current Version | Previous Version | Graphics & Text | Print | Product List | Glossary On
Versions: 1 2 3 4 5 6 7 8 9 10 11 12 13 14 15 16 17 18 19 20 21 22 23 24 25 26 27 28 29 30 31 32 33 34 35 36 37 38 39 40 41 42 43 44 45 46 47 48 49 50
000
ASUS43 KOAX 291002
RWRNE

WEATHER ROUNDUP FOR NEBRASKA
NATIONAL WEATHER SERVICE OMAHA NE
500 AM CDT FRI AUG 29 2014

NOTES: SATELLITE DATA IS BEING USED TO AUGMENT CLOUD COVER ABOVE
       12000 FEET.
       "FAIR" INDICATES FEW OR NO CLOUDS BELOW 12,000 FEET WITH NO
       SIGNIFICANT WEATHER AND/OR OBSTRUCTIONS TO VISIBILITY.

  * THESE STATIONS DO NOT REPORT WEATHER SUCH AS RAIN...SNOW OR FOG.

NEZ001>004-019>022-054>056-291100-
NEBRASKA PANHANDLE

CITY           SKY/WX    TMP DP  RH WIND       PRES   REMARKS
SCOTTSBLUFF    CLEAR     50  49  96 NW5       29.98S
ALLIANCE       CLEAR     50  48  93 W9        29.95S
CHADRON        CLEAR     54  51  90 W8        29.92S
KIMBALL        CLEAR     49  47  93 W7        30.02S
SIDNEY         CLEAR     53  49  86 W5        30.00F
$$

NEZ057>060-069>072-079>082-291100-
SOUTHWEST NEBRASKA

CITY           SKY/WX    TMP DP  RH WIND       PRES   REMARKS
NORTH PLATTE   CLEAR     55  53  93 CALM      29.90F
IMPERIAL       CLEAR     57  52  83 NW12      29.94F
LEXINGTON      PTCLDY    62  60  94 NW7       29.87S
MCCOOK         CLEAR     58  55  90 NW7       29.89F
OGALLALA       CLEAR     51  51  97 W7        29.94S
$$

NEZ005>010-023>029-035>040-094-291100-
NORTH CENTRAL NEBRASKA

CITY           SKY/WX    TMP DP  RH WIND       PRES   REMARKS
VALENTINE      CLEAR     59  59 100 SW7       29.87S
AINSWORTH      CLEAR     60  59  97 W5        29.87S
BROKEN BOW     PTCLDY    62  57  83 CALM      29.86F
O`NEILL        PTCLDY    64  63  99 W7        29.82F
ORD            MOCLDY    62  60  93 NW8       29.82F
THEDFORD       CLEAR     57  55  94 W7        29.90S
$$

NEZ041-046>049-061>064-073>077-083>087-291100-
SOUTH CENTRAL NEBRASKA

CITY           SKY/WX    TMP DP  RH WIND       PRES   REMARKS
GRAND ISLAND   CLOUDY    67  65  93 CALM      29.83R
AURORA         CLOUDY    67  65  94 CALM      29.82S
HASTINGS       CLOUDY    67  63  87 S6        29.82S
HEBRON         LGT RAIN  69  64  86 SW8       29.80F
HOLDREGE       CLOUDY    63  61  93 CALM      29.85S
KEARNEY *      CLOUDY    64  61  88 NW8       29.84S
$$

NEZ011>018-030>034-042>045-291100-
NORTHEAST NEBRASKA

CITY           SKY/WX    TMP DP  RH WIND       PRES   REMARKS
NORFOLK        CLOUDY    70  68  93 S5        29.81R
ALBION         CLOUDY    64  63  94 NW3       29.82S
BLAIR          MOCLDY    73  67  83 S7        29.79F
FREMONT        MOCLDY    72  67  85 S6        29.79F
TEKAMAH        MOCLDY    70  69  97 CALM      29.78F
WAYNE          MOCLDY    69  67  95 SW6       29.80R
$$

NEZ050>053-065>068-078-088>093-291100-
SOUTHEAST NEBRASKA

CITY           SKY/WX    TMP DP  RH WIND       PRES   REMARKS
LINCOLN        CLOUDY    72  67  84 SW6       29.80F
OMAHA EPPLEY   CLOUDY    72  69  90 S8        29.80S
BEATRICE       CLOUDY    71  67  85 S7        29.81S
FALLS CITY     MOCLDY    73  67  81 S3        29.81R
NEBRASKA CITY  PTCLDY    70  70 100 CALM      29.82R
PLATTSMOUTH    MOCLDY    72  69  93 CALM      29.81S FOG
$$

NEZ044-045-051>053-067-291100-
OMAHA AREA

CITY           SKY/WX    TMP DP  RH WIND       PRES   REMARKS
OMAHA EPPLEY   CLOUDY    72  69  90 S8        29.80S
BLAIR          MOCLDY    73  67  83 S7        29.79F
FREMONT        MOCLDY    72  67  85 S6        29.79F
MILLARD        MOCLDY    71  69  93 SE5       29.79S
OFFUTT AFB     MOCLDY    70  70 100 E2        29.80S
PLATTSMOUTH    MOCLDY    72  69  93 CALM      29.81S FOG
WAHOO          FAIR      70  67  89 S3        29.80R
$$



USA.gov is the U.S. government's official web portal to all federal, state and local government web resources and services.